Weather reports worldwide

Advertisment
Topcliffe, United Kingdom (3265): temperature & dewpoint: 17.10.2020 01:00:00 - 23.10.2020 01:00:00 (BST)Topcliffe, United Kingdom (3265): wind speed & gusts: 17.10.2020 01:00:00 - 23.10.2020 01:00:00 (BST)Topcliffe, United Kingdom (3265): wind direction: 17.10.2020 01:00:00 - 23.10.2020 01:00:00 (BST)Topcliffe, United Kingdom (3265): reduced air pressure: 17.10.2020 01:00:00 - 23.10.2020 01:00:00 (BST)Topcliffe, United Kingdom (3265): visibility: 17.10.2020 01:00:00 - 23.10.2020 01:00:00 (BST)Topcliffe, United Kingdom (3265): precipitation: 17.10.2020 01:00:00 - 23.10.2020 01:00:00 (BST)
Date & Time tt [°C] td [°C] ff [km/h] ff [kn] fx [km/h] fx [kn] dd ppp [hPa] vv [km] rr [mm]
23.10.2020 01:00:00 7,4 4,3 11 6 - - SSW 1007,5 50 0,0
23.10.2020 00:00:00 6,1 3,7 11 6 - - S 1007,5 50 0,0
22.10.2020 23:00:00 7,0 4,0 15 8 - - SW 1007,5 50 0,0
22.10.2020 22:00:00 6,5 3,8 5 3 - - SW 1007,7 10 0,0
22.10.2020 21:00:00 8,3 4,7 16 9 - - WSW 1007,4 10 0,0
22.10.2020 20:00:00 9,1 5,4 13 7 - - WSW 1007,0 50 0,0
22.10.2020 19:00:00 9,4 5,7 24 13 - - WSW 1006,5 50 0,0
22.10.2020 18:00:00 10,4 7,1 21 11 - - WSW 1006,0 50 0,0
22.10.2020 17:00:00 11,4 7,1 26 14 - - WSW 1005,3 50 0,0
22.10.2020 16:00:00 12,2 7,9 28 15 48 26 WSW 1004,5 10 0,0
22.10.2020 15:00:00 12,8 8,3 28 15 46 25 WSW 1003,8 10 0,0
22.10.2020 14:00:00 12,9 8,4 29 16 48 26 WSW 1003,2 10 0,0
22.10.2020 13:00:00 12,9 8,6 24 13 - - WSW 1003,0 28 0,0
22.10.2020 12:00:00 12,0 9,3 22 12 - - WSW 1002,7 50 0,0
22.10.2020 11:00:00 11,7 9,0 24 13 - - SW 1002,0 10 0,0
22.10.2020 10:00:00 10,6 8,6 22 12 - - SW 1001,3 10 0,0
22.10.2020 09:00:00 9,8 7,8 28 15 48 26 SW 1000,6 50 0,0
22.10.2020 08:00:00 9,4 7,3 34 18 48 26 SW 999,9 50 0,0
22.10.2020 07:00:00 9,7 7,1 34 18 57 31 SW 999,1 50 0,0
22.10.2020 06:00:00 9,8 7,0 28 15 - - SW 999,3 50 0,0
22.10.2020 05:00:00 10,0 6,7 26 14 - - SW 998,9 10 0,0
22.10.2020 04:00:00 10,4 6,6 29 16 50 27 SW 998,8 10 0,0
22.10.2020 03:00:00 10,5 7,2 22 12 - - SW 998,5 10 0,0
22.10.2020 02:00:00 10,2 7,2 21 11 - - SW 998,4 10 0,0
22.10.2020 01:00:00 11,2 9,8 13 7 - - S 998,0 10 0,0
22.10.2020 00:00:00 11,2 9,9 16 9 - - SSW 997,6 50 0,0
21.10.2020 23:00:00 11,5 9,3 18 10 - - SW 997,2 50 0,0
21.10.2020 22:00:00 10,6 9,4 5 3 - - SSE 996,7 10 0,0
21.10.2020 21:00:00 11,4 9,8 8 4 - - S 996,2 50 0,0
21.10.2020 20:00:00 11,8 10,1 9 5 - - ESE 996,0 10 0,0
21.10.2020 19:00:00 12,2 9,8 13 7 - - SW 995,1 10 0,0
21.10.2020 18:00:00 12,5 10,2 8 4 - - SW 994,1 45 0,0
21.10.2020 17:00:00 13,7 11,9 11 6 - - WSW 993,0 10 0,8
21.10.2020 16:00:00 14,8 14,1 13 7 - - SSE 992,3 5 0,0
21.10.2020 15:00:00 14,8 13,9 9 5 - - SE 992,1 7 0,0
21.10.2020 14:00:00 14,8 13,8 9 5 - - SSE 992,1 7 0,0
21.10.2020 13:00:00 14,5 13,7 13 7 - - SE 992,4 7 0,0
21.10.2020 12:00:00 14,2 13,5 15 8 - - SSE 992,8 6 0,0
21.10.2020 11:00:00 13,6 13,2 11 6 - - SSE 993,3 5 0,0
21.10.2020 10:00:00 13,3 13,1 18 10 - - SSE 993,9 5 0,0
21.10.2020 09:00:00 13,0 12,9 16 9 - - SSE 994,0 5 0,0
21.10.2020 08:00:00 13,0 12,7 15 8 - - SSE 993,8 4,6 0,0
21.10.2020 07:00:00 13,0 12,8 15 8 - - SSE 994,0 5 0,0
21.10.2020 06:00:00 13,2 12,9 15 8 - - SSE 994,4 6 0,2
21.10.2020 05:00:00 13,1 12,8 18 10 - - SSE 994,8 8 0,0
21.10.2020 04:00:00 13,0 12,8 22 12 - - SSE 995,4 8 0,4
21.10.2020 03:00:00 13,0 12,7 21 11 - - SSE 996,1 7 1,2
21.10.2020 02:00:00 12,9 12,4 21 11 - - SSE 996,5 12 0,4
21.10.2020 01:00:00 12,9 12,0 18 10 - - SE 996,7 10 0,0
21.10.2020 00:00:00 12,7 11,5 24 13 - - SSE 996,7 50 0,0
20.10.2020 23:00:00 13,0 11,3 24 13 - - SSE 996,6 30 0,0
20.10.2020 22:00:00 13,2 11,3 26 14 - - SSE 996,7 10 0,0
20.10.2020 21:00:00 12,5 11,0 22 12 - - SSE 996,6 24 0,0
20.10.2020 20:00:00 12,5 11,2 21 11 - - SE 996,5 10 0,0
20.10.2020 19:00:00 14,0 10,7 22 12 - - SSE 996,3 30 0,0
20.10.2020 18:00:00 15,1 11,2 15 8 - - SSE 996,0 35 0,0
20.10.2020 17:00:00 16,0 10,9 26 14 - - S 996,0 10 0,0
20.10.2020 16:00:00 16,5 10,4 28 15 - - S 996,3 10 0,0
20.10.2020 15:00:00 16,5 13,2 24 13 - - SSE 996,4 10 0,0
20.10.2020 14:00:00 17,5 13,3 28 15 - - S 996,5 30 0,0
20.10.2020 13:00:00 15,5 13,1 26 14 - - S 996,9 30 0,0
20.10.2020 12:00:00 14,6 12,4 29 16 - - S 997,1 29 0,0
20.10.2020 11:00:00 14,0 12,7 21 11 - - SSE 996,9 19 0,0
20.10.2020 10:00:00 11,1 10,7 15 8 - - SE 997,4 9 0,0
20.10.2020 09:00:00 10,4 9,9 13 7 - - SE 997,4 8 0,0
20.10.2020 08:00:00 9,8 9,4 24 13 - - SSE 997,0 10 0,0
20.10.2020 07:00:00 9,5 9,0 26 14 - - SE 997,1 14 0,0
20.10.2020 06:00:00 9,1 8,7 21 11 - - SE 997,6 8 0,2
20.10.2020 05:00:00 9,2 8,4 22 12 - - SE 998,6 14 1,0
20.10.2020 04:00:00 9,4 8,1 22 12 - - SE 999,3 10 0,2
20.10.2020 03:00:00 9,6 7,7 26 14 - - SE 1000,3 17 0,0
20.10.2020 02:00:00 9,5 7,6 21 11 - - SE 1001,6 10 0,0
20.10.2020 01:00:00 9,7 7,4 22 12 - - SE 1002,8 10 0,0
20.10.2020 00:00:00 9,7 7,4 22 12 - - SE 1003,7 40 0,0
19.10.2020 23:00:00 9,9 7,9 18 10 - - SE 1004,6 30 0,2
19.10.2020 22:00:00 10,5 8,3 24 13 - - SE 1005,5 10 0,2
19.10.2020 21:00:00 11,2 8,8 18 10 - - SE 1006,0 10 0,2
19.10.2020 20:00:00 11,5 9,0 22 12 - - SE 1006,8 16 0,0
19.10.2020 19:00:00 11,1 8,9 24 13 - - SE 1007,3 12 0,0
19.10.2020 18:00:00 11,0 8,5 21 11 - - SE 1007,8 16 0,0
19.10.2020 17:00:00 11,3 8,5 16 9 - - SSE 1008,7 10 0,0
19.10.2020 16:00:00 11,7 8,5 24 13 - - SSE 1009,4 18 0,0
19.10.2020 15:00:00 12,2 8,4 26 14 - - S 1010,2 10 0,0
19.10.2020 14:00:00 12,6 8,8 24 13 - - SSE 1011,2 10 0,0
19.10.2020 13:00:00 11,3 8,8 26 14 - - SSE 1012,4 10 0,0
19.10.2020 12:00:00 10,6 9,0 21 11 - - SSE 1013,3 7 0,0
19.10.2020 11:00:00 9,2 8,0 22 12 - - SE 1013,9 6 0,0
19.10.2020 10:00:00 8,8 7,9 16 9 - - SE 1014,5 6 0,0
19.10.2020 09:00:00 7,8 7,2 16 9 - - SE 1014,7 5 0,0
19.10.2020 08:00:00 7,4 6,8 16 9 - - SE 1015,1 4,8 0,0
19.10.2020 07:00:00 8,1 7,5 16 9 - - SE 1015,6 6 0,0
19.10.2020 06:00:00 7,4 6,7 11 6 - - SE 1016,0 5 0,0
19.10.2020 05:00:00 7,9 7,5 13 7 - - SE 1017,1 4,7 0,0
19.10.2020 04:00:00 8,3 7,8 15 8 - - SSE 1017,4 6 0,2
19.10.2020 03:00:00 8,3 7,8 15 8 - - SE 1018,2 6 0,0
19.10.2020 02:00:00 8,1 7,6 11 6 - - SE 1019,0 6 0,0
19.10.2020 01:00:00 7,8 7,3 11 6 - - SE 1019,1 6 0,0
19.10.2020 00:00:00 7,9 7,3 15 8 - - SE 1019,5 10 0,0
18.10.2020 23:00:00 7,7 6,9 9 5 - - SE 1020,0 11 0,0
18.10.2020 22:00:00 7,7 6,8 11 6 - - SE 1020,5 10 0,0
18.10.2020 21:00:00 8,0 6,7 13 7 - - SSE 1020,7 35 0,0
18.10.2020 20:00:00 8,3 6,8 15 8 - - SSE 1021,3 10 0,0
18.10.2020 19:00:00 8,4 6,6 11 6 - - SSE 1021,7 10 0,0
18.10.2020 18:00:00 9,0 6,6 8 4 - - SSE 1021,8 10 0,0
18.10.2020 17:00:00 9,4 6,9 8 4 - - SSE 1021,8 10 0,0
18.10.2020 16:00:00 10,0 6,5 8 4 - - S 1022,2 50 0,0
18.10.2020 15:00:00 9,7 6,1 4 2 - - S 1022,7 10 0,0
18.10.2020 14:00:00 9,5 6,5 4 2 - - NW 1023,4 10 0,0
18.10.2020 13:00:00 8,9 5,8 8 4 - - WNW 1024,0 10 0,0
18.10.2020 12:00:00 8,6 5,9 9 5 - - NW 1024,5 50 0,0
18.10.2020 11:00:00 8,1 5,9 13 7 - - NW 1025,1 45 0,0
18.10.2020 10:00:00 7,5 5,8 11 6 - - NW 1025,1 10 0,0
18.10.2020 09:00:00 6,5 5,7 9 5 - - NNW 1024,8 50 0,0
18.10.2020 08:00:00 5,7 5,3 9 5 - - NW 1024,6 10 0,0
18.10.2020 07:00:00 5,9 5,5 9 5 - - WNW 1024,2 10 0,0
18.10.2020 06:00:00 5,0 4,0 5 3 - - NE 1024,2 1,4 0,0
18.10.2020 05:00:00 7,4 6,6 9 5 - - NW 1024,8 10 0,0
18.10.2020 04:00:00 7,9 7,1 11 6 - - NNW 1024,9 10 0,0
18.10.2020 03:00:00 8,1 7,4 11 6 - - NNW 1025,2 10 0,0
18.10.2020 02:00:00 8,5 7,9 16 9 - - NNW 1025,1 15 0,0
18.10.2020 01:00:00 8,9 8,1 15 8 - - NNW 1025,1 10 0,0
18.10.2020 00:00:00 8,8 7,9 11 6 - - N 1024,9 50 0,0
17.10.2020 23:00:00 9,4 8,6 15 8 - - N 1024,8 13 0,0
17.10.2020 22:00:00 10,2 9,0 9 5 - - NNW 1024,7 10 0,0
17.10.2020 21:00:00 10,4 7,6 15 8 - - NNE 1024,5 10 0,0
17.10.2020 20:00:00 10,6 9,0 8 4 - - N 1024,3 10 0,0
17.10.2020 19:00:00 10,9 9,1 9 5 - - N 1024,0 40 0,0
17.10.2020 18:00:00 11,1 8,3 9 5 - - NE 1023,7 45 0,0
17.10.2020 17:00:00 12,2 8,4 11 6 - - NE 1023,4 40 0,0
17.10.2020 16:00:00 12,5 8,7 16 9 - - NE 1023,6 10 0,0
17.10.2020 15:00:00 12,9 8,6 16 9 - - NNE 1023,4 45 0,0
17.10.2020 14:00:00 13,3 10,4 16 9 - - NNE 1023,4 30 0,0
17.10.2020 13:00:00 12,7 11,1 16 9 - - NNW 1023,6 26 0,0
17.10.2020 12:00:00 11,0 9,9 16 9 - - NW 1024,0 20 0,0
17.10.2020 11:00:00 9,9 9,3 16 9 - - NNW 1023,8 10 0,0
17.10.2020 10:00:00 8,8 8,3 11 6 - - NNW 1023,9 10 0,0
17.10.2020 09:00:00 8,4 8,0 15 8 - - NNW 1023,9 21 0,0
17.10.2020 08:00:00 8,0 7,7 11 6 - - NNW 1023,8 10 0,0
17.10.2020 07:00:00 7,7 7,4 13 7 - - NW 1023,9 10 0,0
17.10.2020 06:00:00 7,8 7,5 15 8 - - NW 1024,2 23 0,2
17.10.2020 05:00:00 8,1 7,7 16 9 - - NW 1024,3 6 0,0
17.10.2020 04:00:00 8,1 7,6 15 8 - - NNW 1024,7 5 0,0
17.10.2020 03:00:00 8,2 7,7 13 7 - - NW 1025,3 2,5 0,0
17.10.2020 02:00:00 8,3 7,7 11 6 - - NNW 1025,8 9 0,0
17.10.2020 01:00:00 8,2 7,4 8 4 - - NNW 1026,0 10 0,0

tt = temperature
td = dewpoint
ff = wind speed
fx = gusts
dd = wind direction
ppp = reduced air pressure
vv = visibility
rr = precipitation

Next stations